Date String (YYYY-MM-DD hh:mm:ss) UTC,Instrument flags,absolute air pressure of the measurement (hPa),sample flow rate (lpm),inlet stack bypass flow (lpm),air temperature of the measurement (°C),ambient temperature measured by the external sensor (°C),aerosol sample conditioner tube jacket temperature (°C),OPC LED temperature (°C),internal box temperature (°C),relative humidity of the measurement (%),span deviation,mass concentration of particles derived from Lorenz-Mie calculation of OPC scattering (μg/m³),mass concentration of particles derived from Lorenz-Mie calculation of OPC scattering (μg/m³),mass concentration of particles derived from Lorenz-Mie calculation of OPC scattering (μg/m³)
DateTimeUTC,F1_M11,P_M11,Q1_M11,Q2_M11,T1_M11,T2_M11,T3_M11,T4_M11,T5_M11,U1_M11,ZSPAN_M11,X2_M11,X0_M11,X1_M11
2024-05-26 04:00:00,SystemResetWarning,0822.6,5.00,000.00,030.1,029.2,000.0,038.5,031.7,016.4,0000.0,0000.79,0003.82,0000.48
2024-05-26 04:01:00,SystemResetWarning,0822.9,5.00,000.00,030.1,029.2,000.0,038.5,031.8,016.3,0000.0,0000.78,0004.64,0000.49
2024-05-26 04:02:00,SystemResetWarning,0822.7,5.00,000.00,030.0,029.2,000.0,038.5,031.7,016.2,0000.0,0000.80,0004.84,0000.50
2024-05-26 04:03:00,SystemResetWarning,0822.8,5.00,000.00,030.0,029.1,000.0,038.5,031.7,016.0,0000.0,0000.85,0005.01,0000.53
2024-05-26 04:04:00,SystemResetWarning,0822.8,5.00,000.00,030.0,029.1,000.0,038.5,031.7,016.2,0000.0,0000.87,0005.05,0000.53
2024-05-26 04:05:00,SystemResetWarning,0822.6,5.00,000.00,030.0,029.1,000.0,038.5,031.6,016.2,0000.0,0000.89,0004.19,0000.55
2024-05-26 04:06:00,SystemResetWarning,0822.8,5.00,000.00,030.0,029.0,000.0,038.5,031.6,016.3,0000.0,0000.93,0003.56,0000.56
2024-05-26 04:07:00,SystemResetWarning,0823.1,5.01,000.00,029.9,029.0,000.0,038.5,031.6,016.1,0000.0,0000.99,0003.37,0000.57
2024-05-26 04:08:00,SystemResetWarning,0822.6,5.01,000.00,029.9,029.0,000.0,038.4,031.6,016.0,0000.0,0001.01,0003.42,0000.58
2024-05-26 04:09:00,SystemResetWarning,0822.5,5.01,000.00,029.9,029.0,000.0,038.4,031.6,016.0,0000.0,0000.99,0003.16,0000.59
2024-05-26 04:10:00,SystemResetWarning,0822.4,5.00,000.00,029.9,028.9,000.0,038.4,031.6,016.0,0000.0,0000.98,0003.04,0000.59
2024-05-26 04:11:00,SystemResetWarning,0822.3,4.99,000.00,029.9,028.9,000.0,038.4,031.6,016.1,0000.0,0000.97,0003.04,0000.60
2024-05-26 04:12:00,SystemResetWarning,0822.3,4.99,000.00,029.9,028.9,000.0,038.4,031.6,015.9,0000.0,0001.00,0002.21,0000.61
2024-05-26 04:13:00,SystemResetWarning,0822.2,4.99,000.00,029.8,028.9,000.0,038.4,031.5,015.9,0000.0,0001.01,0001.89,0000.62
2024-05-26 04:14:00,SystemResetWarning,0822.2,4.99,000.00,029.8,028.9,000.0,038.4,031.5,016.1,0000.0,0000.99,0001.82,0000.61
2024-05-26 04:15:00,SystemResetWarning,0822.1,5.01,000.00,029.8,028.9,000.0,038.4,031.5,016.2,0000.0,0001.00,0001.88,0000.61
2024-05-26 04:16:00,SystemResetWarning,0822.1,5.01,000.00,029.8,028.9,000.0,038.3,031.5,016.4,0000.0,0001.00,0001.84,0000.61
2024-05-26 04:17:00,SystemResetWarning,0822.1,5.00,000.00,029.8,028.9,000.0,038.3,031.5,016.4,0000.0,0000.99,0002.42,0000.61
2024-05-26 04:18:00,SystemResetWarning,0822.2,4.98,000.00,029.8,028.9,000.0,038.3,031.5,016.0,0000.0,0000.96,0003.04,0000.61
2024-05-26 04:19:00,SystemResetWarning,0822.2,5.01,000.00,029.8,028.8,000.0,038.3,031.5,016.0,0000.0,0001.01,0003.25,0000.61
2024-05-26 04:20:00,SystemResetWarning,0822.3,5.01,000.00,029.8,028.8,000.0,038.3,031.5,016.3,0000.0,0001.03,0003.35,0000.62
2024-05-26 04:21:00,SystemResetWarning,0822.2,5.01,000.00,029.8,028.8,000.0,038.3,031.4,016.5,0000.0,0001.04,0003.44,0000.62
2024-05-26 04:22:00,SystemResetWarning,0822.3,5.00,000.00,029.8,028.8,000.0,038.3,031.4,016.5,0000.0,0001.03,0003.42,0000.62
2024-05-26 04:23:00,SystemResetWarning,0822.4,5.00,000.00,029.8,028.8,000.0,038.3,031.4,016.5,0000.0,0001.02,0003.37,0000.61
2024-05-26 04:24:00,SystemResetWarning,0822.3,5.00,000.00,029.8,028.8,000.0,038.2,031.4,016.5,0000.0,0001.05,0003.48,0000.61
2024-05-26 04:25:00,SystemResetWarning,0822.3,4.99,000.00,029.8,028.9,000.0,038.2,031.4,016.5,0000.0,0001.06,0003.59,0000.62
2024-05-26 04:26:00,SystemResetWarning,0822.3,5.00,000.00,029.8,028.9,000.0,038.2,031.4,016.7,0000.0,0001.04,0003.49,0000.62
2024-05-26 04:27:00,SystemResetWarning,0822.2,5.00,000.00,029.8,028.9,000.0,038.2,031.5,017.0,0000.0,0001.04,0003.48,0000.61
2024-05-26 04:28:00,SystemResetWarning,0822.2,5.00,000.00,029.8,028.9,000.0,038.2,031.4,017.5,0000.0,0001.05,0003.17,0000.61
2024-05-26 04:29:00,SystemResetWarning,0822.2,5.00,000.00,029.8,028.9,000.0,038.2,031.5,017.8,0000.0,0001.06,0002.39,0000.60
2024-05-26 04:30:00,SystemResetWarning,0822.2,5.00,000.00,029.8,028.9,000.0,038.2,031.5,017.8,0000.0,0001.09,0002.91,0000.58
2024-05-26 04:31:00,SystemResetWarning,0822.4,5.01,000.00,029.8,029.0,000.0,038.2,031.5,017.8,0000.0,0001.14,0003.23,0000.57
2024-05-26 04:32:00,SystemResetWarning,0822.4,5.01,000.00,029.8,029.0,000.0,038.2,031.5,017.8,0000.0,0001.15,0003.32,0000.57
2024-05-26 04:33:00,SystemResetWarning,0822.4,5.00,000.00,029.8,029.0,000.0,038.2,031.5,017.7,0000.0,0001.18,0004.01,0000.57
2024-05-26 04:34:00,SystemResetWarning,0822.4,5.00,000.00,029.8,029.0,000.0,038.2,031.5,017.6,0000.0,0001.22,0005.19,0000.57
2024-05-26 04:35:00,SystemResetWarning,0822.4,5.00,000.00,029.8,029.0,000.0,038.2,031.5,017.3,0000.0,0001.27,0006.33,0000.57
2024-05-26 04:36:00,SystemResetWarning,0822.4,5.00,000.00,029.8,029.0,000.0,038.2,031.5,017.3,0000.0,0001.33,0007.45,0000.57
2024-05-26 04:37:00,SystemResetWarning,0822.4,5.00,000.00,029.8,029.1,000.0,038.2,031.6,017.3,0000.0,0001.39,0008.19,0000.56
2024-05-26 04:38:00,SystemResetWarning,0822.4,5.00,000.00,029.8,029.1,000.0,038.2,031.6,017.4,0000.0,0001.39,0008.75,0000.55
2024-05-26 04:39:00,SystemResetWarning,0822.4,5.00,000.00,029.8,029.1,000.0,038.2,031.6,017.3,0000.0,0001.38,0008.81,0000.55
2024-05-26 04:40:00,SystemResetWarning,0822.5,5.00,000.00,029.9,029.1,000.0,038.2,031.6,017.3,0000.0,0001.40,0009.34,0000.55
2024-05-26 04:41:00,SystemResetWarning,0822.5,5.00,000.00,029.9,029.1,000.0,038.2,031.6,017.3,0000.0,0001.38,0010.41,0000.56
2024-05-26 04:42:00,SystemResetWarning,0822.4,4.99,000.00,029.9,029.1,000.0,038.2,031.6,017.3,0000.0,0001.32,0010.45,0000.56
2024-05-26 04:43:00,SystemResetWarning,0822.4,5.02,000.00,029.9,029.1,000.0,038.2,031.6,017.4,0000.0,0001.28,0010.34,0000.56
2024-05-26 04:44:00,SystemResetWarning,0822.4,5.01,000.00,029.9,029.1,000.0,038.3,031.6,017.3,0000.0,0001.30,0010.24,0000.55
2024-05-26 04:45:00,SystemResetWarning,0822.4,4.99,000.00,029.9,029.1,000.0,038.3,031.6,017.1,0000.0,0001.37,0009.86,0000.56
2024-05-26 04:46:00,SystemResetWarning,0822.4,4.99,000.00,029.9,029.1,000.0,038.3,031.6,017.2,0000.0,0001.32,0009.61,0000.55
2024-05-26 04:47:00,SystemResetWarning,0822.3,5.00,000.00,029.9,029.0,000.0,038.3,031.6,017.0,0000.0,0001.24,0008.95,0000.54
2024-05-26 04:48:00,SystemResetWarning,0822.2,4.99,000.00,029.9,029.0,000.0,038.3,031.6,016.7,0000.0,0001.19,0008.47,0000.54
2024-05-26 04:49:00,SystemResetWarning,0822.2,5.00,000.00,029.9,029.0,000.0,038.3,031.6,016.8,0000.0,0001.21,0007.88,0000.53
2024-05-26 04:50:00,SystemResetWarning,0822.2,5.01,000.00,029.9,029.0,000.0,038.3,031.6,016.8,0000.0,0001.19,0007.77,0000.53
2024-05-26 04:51:00,SystemResetWarning,0822.2,5.01,000.00,029.9,029.0,000.0,038.3,031.6,016.5,0000.0,0001.18,0007.50,0000.52
2024-05-26 04:52:00,SystemResetWarning,0822.4,4.99,000.00,029.9,029.0,000.0,038.3,031.6,016.4,0000.0,0001.11,0004.83,0000.50
2024-05-26 04:53:00,SystemResetWarning,0822.4,4.99,000.00,029.9,029.0,000.0,038.3,031.6,016.3,0000.0,0001.07,0003.99,0000.48
2024-05-26 04:54:00,SystemResetWarning,0822.4,4.99,000.00,029.9,029.1,000.0,038.2,031.6,016.4,0000.0,0001.05,0003.96,0000.47
2024-05-26 04:55:00,SystemResetWarning,0822.3,5.01,000.00,029.9,029.1,000.0,038.3,031.6,016.3,0000.0,0000.98,0003.75,0000.46
2024-05-26 04:56:00,SystemResetWarning,0822.4,5.01,000.00,029.9,029.1,000.0,038.3,031.6,016.2,0000.0,0000.87,0003.20,0000.45
2024-05-26 04:57:00,SystemResetWarning,0822.4,5.00,000.00,029.9,029.0,000.0,038.2,031.6,016.1,0000.0,0000.85,0002.67,0000.45
2024-05-26 04:58:00,SystemResetWarning,0822.4,4.99,000.00,029.9,029.0,000.0,038.3,031.6,016.1,0000.0,0000.85,0002.27,0000.45
2024-05-26 04:59:00,SystemResetWarning,0822.4,5.00,000.00,029.9,029.0,000.0,038.3,031.5,016.2,0000.0,0000.83,0001.82,0000.46
